(674) Rachele
ephemeris date magn radius delta ra dec elong phase
Today17 Sep 202513.32.996 AU3.865 AU13h20m-02°48'26.2°8.5°
Opposition29 May 202612.13.376 AU2.364 AU16h24m-25°09'176.4°1.1°
(674) Rachele - 2025-09-17
astro.vanbuitenen.nl


 
-1 year
-1 month
-1 day
Now
+1 day
+1 month
+1 year

The interactive orbit chart above shows the body's path through the solar system and its position at the given date. Green and blue lines are shown perpendicular to the ecliptic plane: Green if the path is above the ecliptic plane, blue if it is below. (Left-click and drag to rotate the view; Right-click and drag to move the view; Use scroll wheel to zoom in our out.)

The orbital elements of Rachele are:

            e (Eccentricity)                : 0.1931154
            a (Semimajor axis)              : 2.9236200
            i (Inclination)                 : 13.51375
            Ω (Longitude of ascending node) : 58.06830
            ω (Argument of perihelion)      : 41.09831
            M (Mean anomaly)                : 59.78044
            Epoch                           : 2025 May 05

            L (Longitude of perihelion)     : 98.37134
            B (Latitude of perihelion)      : 8.83616
            P (Orbital period in years)     : 5.00            
        

The light curve chart below shows the estimated development of the minor planet's magnitude.


The all-sky chart below shows the path of the minor planet over the same period as the light curve. The current position is marked yellow.





The following chart shows the path of the minor planet in the next few days. The field of view is optimized for (~10x50) binoculars and finderscopes. A more printer-friendly version of the same chart can be found below.




Ephemerides:
Date       Time       RA (2000)    DEC (2000)    delta   radius  elong  phase   PA    magn
2025-09-17 00:00 UT   13 20 48.0   -02 48 18     3.865    2.996   26.2    8.5   101   13.3 
2025-09-17 01:59 UT   13 20 54.6   -02 49 10     3.865    2.996   26.2    8.5   101   13.3 
2025-09-18 00:00 UT   13 22 07.9   -02 58 41     3.872    2.998   25.6    8.3   101   13.3 
2025-09-19 00:00 UT   13 23 28.0   -03 09 03     3.880    3.000   25.0    8.1   101   13.3 
2025-09-20 00:00 UT   13 24 48.3   -03 19 23     3.887    3.002   24.4    8.0   100   13.3 
2025-09-21 00:00 UT   13 26 08.7   -03 29 42     3.895    3.004   23.8    7.8   100   13.3 
2025-09-22 00:00 UT   13 27 29.2   -03 39 59     3.902    3.005   23.2    7.6   100   13.3 
2025-09-23 00:00 UT   13 28 49.8   -03 50 14     3.909    3.007   22.6    7.4    99   13.3 
2025-09-24 00:00 UT   13 30 10.6   -04 00 28     3.915    3.009   22.0    7.2    99   13.3 
2025-09-25 00:00 UT   13 31 31.5   -04 10 40     3.922    3.011   21.5    7.0    99   13.3 
2025-09-26 00:00 UT   13 32 52.5   -04 20 50     3.929    3.013   20.9    6.8    98   13.3 
2025-09-27 00:00 UT   13 34 13.7   -04 30 58     3.935    3.015   20.3    6.6    98   13.3 
2025-09-28 00:00 UT   13 35 34.9   -04 41 04     3.941    3.017   19.7    6.4    97   13.3 
2025-09-29 00:00 UT   13 36 56.3   -04 51 09     3.947    3.018   19.1    6.2    97   13.3 
2025-09-30 00:00 UT   13 38 17.8   -05 01 12     3.953    3.020   18.5    6.0    97   13.3 
2025-10-01 00:00 UT   13 39 39.3   -05 11 12     3.959    3.022   17.9    5.8    96   13.3 
2025-10-02 00:00 UT   13 41 01.0   -05 21 11     3.965    3.024   17.3    5.7    96   13.3 
2025-10-03 00:00 UT   13 42 22.8   -05 31 08     3.970    3.026   16.7    5.5    95   13.3 
2025-10-04 00:00 UT   13 43 44.7   -05 41 03     3.976    3.028   16.1    5.3    94   13.3 
2025-10-05 00:00 UT   13 45 06.7   -05 50 55     3.981    3.030   15.5    5.1    94   13.3 
2025-10-06 00:00 UT   13 46 28.8   -06 00 46     3.986    3.031   15.0    4.9    93   13.3 
2025-10-07 00:00 UT   13 47 50.9   -06 10 35     3.991    3.033   14.4    4.7    92   13.2 
2025-10-08 00:00 UT   13 49 13.2   -06 20 21     3.996    3.035   13.8    4.5    92   13.2 
2025-10-09 00:00 UT   13 50 35.5   -06 30 06     4.001    3.037   13.2    4.3    91   13.2 


    Terminology:
            
    delta:  distance between minor planet and earth in AU
    radius: distance between minor planet and sun in AU
    magn:   magnitude (brightness) estimate    
    ra:     right ascension in hours (24h = 360deg)
    dec:    declination in degrees
    elong:  elongation in degrees (angle sun-earth-minor planet)    
    phase:  phase angle in degrees (angle sun-minor planet-earth)        
    AU:     Astronomical Unit (mean distance between earth and sun: 149597870.7 km
    

Orbital elements provided by the MPC (Minor Planet Center).
Calculations by a modified version of AAPlus, a C# implementation of the AA+ project by PJ Naughter from the algorithms presented in the book "Astronomical Algorithms" by Jean Meeus.
NGC2000 dso catalog and star labels from VizieR as provided by the Strasbourg astronomical Data Center.
Tycho2 catalog from the ESO archive.